Location: Laterina
(43.5167°N, 11.7167°E)
Time: 04:22:42
(UTC+00:00)

Cosmos 2082 Rocket - Pass Details

Date: 24 September 2020
Orbit: 834 x 853 km, 71.0° (Epoch: 25 October)

Event Time Altitude Azimuth Distance (km) Brightness Sun altitude
Rises 20:57:55 0° 328° (NNW) 3,392 6.2 -38.9°
Reaches altitude 10° 21:00:30 10° 320° (NW) 2,455 5.3 -39.2°
Enters shadow 21:02:59 24° 304° (WNW) 1,668 4.2 -39.5°
